World > North America > United States > Michigan   City of Ann Arbor, MI

Ann Arbor, Michigan Regional Weather

Lat: 42.28N, Lon: 83.73W
Wx Zone: MIZ075
Warning NWS WEATHER ALERT - (More Info. Click Here) Warning
Feedback

Ann Arbor, MI Regional Weather

Expires:202003281600;;202339
ASUS43 KDTX 281510
RWRMI 
MICHIGAN HOURLY REGIONAL WEATHER ROUNDUP
NATIONAL WEATHER SERVICE DETROIT/PONTIAC MI
1100 AM EDT SAT MAR 28 2020

NOTE: "FAIR" INDICATES FEW OR NO CLOUDS BELOW 12,000 FEET WITH NO
SIGNIFICANT WEATHER AND/OR OBSTRUCTION TO VISIBILITY.


MIZ047>049-052>055-059>063-066>070-074>076-081>083-281600-
SOUTHEAST LOWER MICHIGAN
  
CITY           SKY/WX    TMP DP  RH WIND       PRES   REMARKS
ADRIAN         CLOUDY    45  44  97 E9        29.78R                  
ALMA           DRIZZLE   42  40  94 NE13      29.83F                  
ANN ARBOR      CLOUDY    45  42  89 E8        29.79R                  
BAD AXE        CLOUDY    41  39  93 E7        29.87F                  
CARO           CLOUDY    42  39  89 E8        29.84F                  
DETROIT CITY   LGT RAIN  44  44 100 NE12G20   29.80F                  
DETROIT        DRIZZLE   45  42  89 NE12      29.78F FOG              
FLINT          LGT RAIN  44  40  85 N10       29.82R                  
GROSSE ILE     LGT RAIN  43  42  97 NE13      29.78S                  
HILLSDALE      CLOUDY    46  45  95 E7        29.77R                  
HOWELL         LGT RAIN  45  45 100 CALM      29.80R                  

CITY           SKY/WX    TMP DP  RH WIND       PRES   REMARKS
JACKSON        CLOUDY    46  44  93 NE7       29.78R                  
LAMBERTVILLE   RAIN      46  45  97 E6        29.77S                  
LANSING        LGT RAIN  42  40  92 E8        29.80F FOG              
LAPEER         LGT RAIN  41  41 100 NE3       29.83S                  
MASON          HVY RAIN  42  41  95 NE5       29.80S                  
MONROE         CLOUDY    45  41  87 NE10      29.77R                  
MT. CLEMENS    LGT RAIN  43  43 100 NE9       29.80F                  
PONTIAC        LGT RAIN  44  42  93 E6        29.78F FOG              
PORT HOPE        N/A     39  35  86 E15       29.86S WCI  31          
PORT HURON     LGT RAIN  43  41  93 N5        29.84R                  
TRI CITIES     CLOUDY    42  34  73 NE15      29.85F                  
MIDLAND        CLOUDY    42  38  86 E12       29.84F                  
TROY           LGT RAIN  43  43 100 NE9       29.81S                  
SAGINAW HB     DRIZZLE   41  37  87 NE10      29.84S                  
$$

SKY/WX - Weather  TMP - Temperature  DP - Dew Point  RH - Relative Humidity
WIND - Wind Direction/Speed PRES - Barometric Pressure VSB - Visibility
WCI - Wind Chill Index E13G22 Wind - East Wind 13 mph/Gusts of 22 mph
Ann Arbor Weather Map
UTC Time: 3/28/2020, 15:30
Your Time: